Lancaster Airport
KLNS : rendu visible

Aérodrome :











RETROUVEZ-NOUS SUR...

 
LOGIN :

S'inscrire | Disclaimer

   EN    FR    IT 

 









Légende :    VFR   VFR Marginal   IFR   IFR Intensif   IFR Très Intensif
Visi : 
Plafond : 
>= 8 km
>= 3000ft
5 à 8 km
1000 à 3000 ft
1500m à 5 km
500 à 1000 ft
800 à 1500m
200 à 500 ft
< 800m
< 200 ft
Symboles :   Orages  Brouillard  Fortes neiges  Fortes précipitations  Vent > 20 kt






- Altitude de l'aérodrome : 403 ft
- Code IATA : LNS


KLNS - Lancaster

DERNIER METAR :
  • 011253Z 28007KT 10SM CLR 15/05 A3031 RMK AO2 SLP263 T01500050

METARs EXPIRÉS :
  • 011153Z 28007KT 10SM CLR 12/04 A3031 RMK AO2 SLP262 T01220039 10128 20078 51017

TAF KLNS
Valide du 01 à 12h jusqu'au 02 à 12h UTC


011123Z 0112/0212 28005KT P6SM FEW250
FM011300 29009G17KT P6SM SCT070
FM020000 27004KT P6SM BKN250
FM021000 VRB03KT P6SM OVC100
FIR KZNY / Amérique du Nord



MET'MAP, la Météo Aéronautique d'un coup d'oeil ! - Copyright ORBIFLY Décembre 2007 - Disclaimer

ORBIFLY MET'MAP TEAM :

Programmation & Développement : Alexandra Zaïnal
Sur une idée originale de : Baudouin d'Aumeries
Assistance à la programmation : Marc-Olivier Méhu
Soutien technique & logistique : Manuel Goepfert

Contact : metmap@orbifly.com




SOURCES & CREDITS :

   NOAA       Earth
Advisory